Date String (YYYY-MM-DD hh:mm:ss) UTC,Instrument flags,Ambient pressure (hPa),Sample flow (lpm),Bypass flow (lpm),Sample temperature (°C),Ambient temperature (°C),ASC tube jacket temperature (°C),LED temperature (°C),Box temperature (°C),Sample RH (%),Span deviation,Mass concentration (μg/m³),Mass concentration (μg/m³),Mass concentration (μg/m³)
DateTimeUTC,F1_M11,P_M11,Q1_M11,Q2_M11,T1_M11,T2_M11,T3_M11,T4_M11,T5_M11,U1_M11,ZSPAN_M11,X0_M11,X2_M11,X1_M11
2022-10-07 19:00:00,,0837.8,5.00,0.00,26.3,24.8,00.0,35.0,28.2,22.4,0000.5,0015.61,0008.60,0007.26
2022-10-07 19:01:00,,0837.8,5.00,0.00,26.3,24.8,00.0,35.0,28.2,22.5,0000.4,0015.68,0008.68,0007.28
2022-10-07 19:02:00,,0837.8,5.01,0.00,26.3,24.9,00.0,35.0,28.2,22.7,0000.3,0015.80,0008.67,0007.30
2022-10-07 19:03:00,,0837.8,5.00,0.00,26.3,24.9,00.0,35.0,28.2,22.6,0000.3,0016.30,0008.67,0007.32
2022-10-07 19:04:00,,0837.8,5.00,0.00,26.3,24.9,00.0,35.0,28.2,22.5,0000.3,0015.76,0008.68,0007.31
2022-10-07 19:05:00,,0837.8,5.00,0.00,26.3,24.9,00.0,35.0,28.2,22.3,0000.5,0015.70,0008.76,0007.31
2022-10-07 19:06:00,,0837.8,5.00,0.00,26.3,24.9,00.0,35.0,28.2,22.3,0000.6,0017.15,0008.87,0007.32
2022-10-07 19:07:00,,0837.8,4.99,0.00,26.3,24.9,00.0,35.0,28.2,22.3,0000.5,0017.07,0008.81,0007.32
2022-10-07 19:08:00,,0837.8,5.00,0.00,26.3,24.9,00.0,35.1,28.2,22.2,0000.6,0017.13,0008.80,0007.31
2022-10-07 19:09:00,,0837.8,5.00,0.00,26.3,24.9,00.0,35.0,28.2,22.2,0000.2,0016.79,0008.74,0007.31
2022-10-07 19:10:00,,0837.8,5.01,0.00,26.3,24.9,00.0,35.1,28.2,22.1,0000.2,0016.53,0008.70,0007.31
2022-10-07 19:11:00,,0837.8,5.00,0.00,26.3,24.9,00.0,35.1,28.2,22.0,0000.1,0016.80,0008.66,0007.31
2022-10-07 19:12:00,,0837.8,5.00,0.00,26.3,24.9,00.0,35.0,28.2,22.1,-000.0,0016.96,0008.64,0007.31
2022-10-07 19:13:00,,0837.8,5.00,0.00,26.3,24.9,00.0,35.0,28.2,22.0,-000.2,0017.66,0008.66,0007.28
2022-10-07 19:14:00,,0837.7,5.00,0.00,26.3,24.9,00.0,35.1,28.2,22.0,-000.2,0018.22,0008.65,0007.27
2022-10-07 19:15:00,,0837.7,5.01,0.00,26.3,24.9,00.0,35.1,28.2,22.0,0000.3,0018.59,0008.64,0007.27
2022-10-07 19:16:00,,0837.6,5.00,0.00,26.3,24.9,00.0,35.1,28.2,22.3,0000.1,0018.93,0008.68,0007.28
2022-10-07 19:17:00,,0837.6,5.00,0.00,26.3,24.9,00.0,35.1,28.2,22.4,0000.2,0017.78,0008.67,0007.27
2022-10-07 19:18:00,,0837.6,5.00,0.00,26.3,24.9,00.0,35.1,28.2,22.2,0000.7,0017.92,0008.71,0007.28
2022-10-07 19:19:00,,0837.5,4.99,0.00,26.3,24.9,00.0,35.1,28.2,22.1,0000.4,0018.25,0008.71,0007.30
2022-10-07 19:20:00,,0837.6,5.00,0.00,26.3,24.9,00.0,35.1,28.2,22.0,0000.6,0018.84,0008.81,0007.32
2022-10-07 19:21:00,,0837.5,5.00,0.00,26.3,24.9,00.0,35.1,28.2,21.9,0000.7,0019.19,0008.84,0007.34
2022-10-07 19:22:00,,0837.5,5.01,0.00,26.3,24.9,00.0,35.1,28.2,22.0,0000.4,0018.83,0008.85,0007.35
2022-10-07 19:23:00,,0837.5,4.99,0.00,26.3,24.9,00.0,35.1,28.2,22.2,0000.5,0018.97,0008.91,0007.36
2022-10-07 19:24:00,,0837.5,4.99,0.00,26.3,24.9,00.0,35.1,28.3,22.2,0000.5,0018.01,0008.90,0007.38
2022-10-07 19:25:00,,0837.5,5.00,0.00,26.3,24.9,00.0,35.1,28.3,22.2,0000.6,0017.95,0008.94,0007.39
2022-10-07 19:26:00,,0837.4,5.00,0.00,26.3,24.9,00.0,35.1,28.3,22.4,0000.1,0017.34,0008.96,0007.41
2022-10-07 19:27:00,,0837.4,5.01,0.00,26.3,25.0,00.0,35.1,28.3,22.8,0000.0,0017.84,0008.95,0007.42
2022-10-07 19:28:00,,0837.4,5.00,0.00,26.3,25.0,00.0,35.1,28.3,22.5,-000.3,0018.05,0008.95,0007.42
2022-10-07 19:29:00,,0837.3,5.00,0.00,26.3,25.0,00.0,35.1,28.3,22.5,-000.6,0018.25,0008.99,0007.44
2022-10-07 19:30:00,,0837.4,4.99,0.00,26.4,24.9,00.0,35.1,28.3,22.6,-000.6,0018.17,0009.06,0007.45
2022-10-07 19:31:00,,0837.3,5.00,0.00,26.4,25.0,00.0,35.1,28.3,22.4,-000.9,0017.92,0009.02,0007.44
2022-10-07 19:32:00,,0837.4,5.01,0.00,26.4,25.0,00.0,35.1,28.3,22.3,-001.1,0017.79,0009.05,0007.46
2022-10-07 19:33:00,,0837.4,5.01,0.00,26.4,25.0,00.0,35.1,28.3,22.2,-000.8,0017.92,0009.07,0007.48
2022-10-07 19:34:00,,0837.4,5.00,0.00,26.4,25.0,00.0,35.1,28.3,22.2,-001.1,0017.98,0009.07,0007.50
2022-10-07 19:35:00,,0837.4,4.99,0.00,26.4,25.0,00.0,35.1,28.3,22.0,-001.1,0018.45,0009.11,0007.53
2022-10-07 19:36:00,,0837.4,5.00,0.00,26.4,25.0,00.0,35.1,28.3,22.1,-001.3,0018.38,0009.14,0007.54
2022-10-07 19:37:00,,0837.4,5.00,0.00,26.4,25.0,00.0,35.1,28.3,22.7,-001.4,0018.62,0009.15,0007.57
2022-10-07 19:38:00,,0837.3,4.99,0.00,26.4,25.0,00.0,35.1,28.3,22.6,-001.4,0017.69,0009.18,0007.60
2022-10-07 19:39:00,,0837.3,5.00,0.00,26.4,25.0,00.0,35.1,28.3,22.4,-001.5,0018.13,0009.27,0007.62
2022-10-07 19:40:00,,0837.3,5.00,0.00,26.4,25.0,00.0,35.1,28.3,21.9,-001.5,0018.30,0009.29,0007.64
2022-10-07 19:41:00,,0837.3,4.99,0.00,26.4,25.0,00.0,35.1,28.3,21.9,-001.7,0018.95,0009.33,0007.66
2022-10-07 19:42:00,,0837.3,5.00,0.00,26.4,25.0,00.0,35.1,28.3,22.1,-001.4,0019.94,0009.40,0007.69
2022-10-07 19:43:00,,0837.3,5.00,0.00,26.4,25.0,00.0,35.1,28.3,22.6,-001.5,0020.23,0009.41,0007.71
2022-10-07 19:44:00,,0837.3,5.00,0.00,26.4,25.0,00.0,35.1,28.3,22.5,-001.8,0020.37,0009.37,0007.71
2022-10-07 19:45:00,,0837.3,5.00,0.00,26.4,25.0,00.0,35.1,28.3,22.2,-001.6,0020.38,0009.34,0007.71
2022-10-07 19:46:00,,0837.3,5.00,0.00,26.4,25.0,00.0,35.1,28.3,21.9,-001.0,0020.28,0009.40,0007.74
2022-10-07 19:47:00,,0837.3,5.00,0.00,26.4,25.0,00.0,35.2,28.3,22.0,-000.7,0019.69,0009.42,0007.76
2022-10-07 19:48:00,,0837.3,5.00,0.00,26.4,25.0,00.0,35.1,28.3,21.9,-000.6,0019.63,0009.49,0007.76
2022-10-07 19:49:00,,0837.3,5.01,0.00,26.4,25.0,00.0,35.1,28.3,21.8,-001.0,0019.35,0009.45,0007.75
2022-10-07 19:50:00,,0837.3,5.00,0.00,26.4,25.0,00.0,35.1,28.3,21.9,-000.9,0018.86,0009.38,0007.76
2022-10-07 19:51:00,,0837.3,4.99,0.00,26.4,25.1,00.0,35.2,28.4,21.8,-001.1,0018.62,0009.40,0007.76
2022-10-07 19:52:00,,0837.2,5.00,0.00,26.4,25.1,00.0,35.2,28.4,21.8,-001.2,0017.84,0009.36,0007.74
2022-10-07 19:53:00,,0837.2,4.99,0.00,26.4,25.1,00.0,35.2,28.4,21.8,-001.4,0016.64,0009.30,0007.72
2022-10-07 19:54:00,,0837.2,5.00,0.00,26.4,25.1,00.0,35.2,28.4,21.8,-001.6,0016.73,0009.32,0007.73
2022-10-07 19:55:00,,0837.2,5.01,0.00,26.4,25.1,00.0,35.2,28.4,21.8,-001.7,0017.73,0009.35,0007.73
2022-10-07 19:56:00,,0837.1,5.01,0.00,26.5,25.1,00.0,35.2,28.4,21.8,-001.7,0017.57,0009.38,0007.74
2022-10-07 19:57:00,,0837.1,4.99,0.00,26.5,25.1,00.0,35.2,28.4,21.9,-002.1,0017.17,0009.32,0007.72
2022-10-07 19:58:00,,0837.2,5.00,0.00,26.4,25.1,00.0,35.2,28.4,21.9,-002.2,0017.32,0009.33,0007.73
2022-10-07 19:59:00,,0837.2,5.00,0.00,26.5,25.1,00.0,35.2,28.4,21.7,-002.3,0017.98,0009.34,0007.71
